User: anonymous
Location: Fort Frances
(48.6170°N, 93.4170°W)
Time: 16:00:22
(UTC-05:00)
Language:

CZ-2C R/B - Orbit

View from above orbital plane
View from above orbital plane
View from above satellite
View from above satellite

Ground track
Ground track

The orbit data is extracted from the following two-line orbital elements,

1 36089U 09061B   14243.21092602  .00000162  00000-0  52463-4 0  4109
2 36089 098.1013 273.2046 0081291 308.7802 092.4529 14.49209906253806
Epoch (UTC): 31 August 2014 05:03:44
Eccentricity: 0.0081291
inclination: 98.1013°
perigee height: 670 km
apogee height: 786 km
right ascension of ascending node: 273.2046°
argument of perigee: 308.7802°
revolutions per day: 14.49209906
mean anomaly at epoch: 92.4529°
orbit number at epoch: 25380

The dashed part of the orbit path shows where the satellite is in the earth's shadow,  

DLR